Location: Mahannah Oil Field
(37.4664°N, 96.6003°W)
Time: 11:46:38
(UTC+00:00)

Altair - Pass Details

Date: 26 January 2021
Orbit: 1501 x 1682 km, 47.2° (Epoch: 24 February)

Event Time Altitude Azimuth Distance (km) Brightness Sun altitude
Exits shadow 08:12:47 11° 90° (E) 3,802 9.7 -62.2°
Drops below altitude 10° 08:13:24 10° 86° (E) 3,909 9.8 -62.1°
Sets 08:18:03 0° 69° (ENE) 4,921 10.6 -61.3°
